owner,sensor,date,latitude,longitude,vertical_datum,sea_water_temperature,qcFlag 
WAVCIS,ioos:station:WAVCIS:CSI03:1,2013-09-01T00:00:00Z,29.4412,-92.0613,10.0,17.72,11111222 
WAVCIS,ioos:station:WAVCIS:CSI03:1,2013-09-01T01:00:00Z,29.4412,-92.0613,10.0,17.66,11111222 
WAVCIS,ioos:station:WAVCIS:CSI03:1,2013-09-01T02:00:00Z,29.4412,-92.0613,10.0,17.73,11111222 
WAVCIS,ioos:station:WAVCIS:CSI03:1,2013-09-01T03:00:00Z,29.4412,-92.0613,10.0,17.79,11111222 
WAVCIS,ioos:station:WAVCIS:CSI03:1,2013-09-01T04:00:00Z,29.4412,-92.0613,10.0,17.81,11111222 
WAVCIS,ioos:station:WAVCIS:CSI03:1,2013-09-01T05:00:00Z,29.4412,-92.0613,10.0,17.75,11111222 
WAVCIS,ioos:station:WAVCIS:CSI03:1,2013-09-01T06:00:00Z,29.4412,-92.0613,10.0,17.66,11111222 
WAVCIS,ioos:station:WAVCIS:CSI03:1,2013-09-01T07:00:00Z,29.4412,-92.0613,10.0,17.63,11111222 
WAVCIS,ioos:station:WAVCIS:CSI03:1,2013-09-01T08:00:00Z,29.4412,-92.0613,10.0,17.68,11111222 
WAVCIS,ioos:station:WAVCIS:CSI03:1,2013-09-01T09:00:00Z,29.4412,-92.0613,10.0,17.81,11111222 
WAVCIS,ioos:station:WAVCIS:CSI03:1,2013-09-01T10:00:00Z,29.4412,-92.0613,10.0,18.01,11111222 
WAVCIS,ioos:station:WAVCIS:CSI03:1,2013-09-01T11:00:00Z,29.4412,-92.0613,10.0,18.18,11111222 
WAVCIS,ioos:station:WAVCIS:CSI03:1,2013-09-01T12:00:00Z,29.4412,-92.0613,10.0,18.27,11111222 
WAVCIS,ioos:station:WAVCIS:CSI03:1,2013-09-01T13:00:00Z,29.4412,-92.0613,10.0,18.31,11111222 
WAVCIS,ioos:station:WAVCIS:CSI03:1,2013-09-01T14:00:00Z,29.4412,-92.0613,10.0,18.34,11111222 
WAVCIS,ioos:station:WAVCIS:CSI03:1,2013-09-01T15:00:00Z,29.4412,-92.0613,10.0,18.39,11111222 
WAVCIS,ioos:station:WAVCIS:CSI03:1,2013-09-01T16:00:00Z,29.4412,-92.0613,10.0,18.32,11111222 
WAVCIS,ioos:station:WAVCIS:CSI03:1,2013-09-01T17:00:00Z,29.4412,-92.0613,10.0,18.27,11111222 
WAVCIS,ioos:station:WAVCIS:CSI03:1,2013-09-01T18:00:00Z,29.4412,-92.0613,10.0,18.21,11111222 
WAVCIS,ioos:station:WAVCIS:CSI03:1,2013-09-01T19:00:00Z,29.4412,-92.0613,10.0,18.18,11111222 
WAVCIS,ioos:station:WAVCIS:CSI03:1,2013-09-01T20:00:00Z,29.4412,-92.0613,10.0,18.15,11111222 
WAVCIS,ioos:station:WAVCIS:CSI03:1,2013-09-01T21:00:00Z,29.4412,-92.0613,10.0,18.06,11111222 
WAVCIS,ioos:station:WAVCIS:CSI03:1,2013-09-01T22:00:00Z,29.4412,-92.0613,10.0,18.06,11111222 
WAVCIS,ioos:station:WAVCIS:CSI03:1,2013-09-01T23:00:00Z,29.4412,-92.0613,10.0,18.07,11111222 
WAVCIS,ioos:station:WAVCIS:CSI03:1,2013-09-02T00:00:00Z,29.4412,-92.0613,10.0,18.13,11111222 
WAVCIS,ioos:station:WAVCIS:CSI03:1,2013-09-02T01:00:00Z,29.4412,-92.0613,10.0,18.19,11111222 
WAVCIS,ioos:station:WAVCIS:CSI03:1,2013-09-02T02:00:00Z,29.4412,-92.0613,10.0,18.19,11111222 
WAVCIS,ioos:station:WAVCIS:CSI03:1,2013-09-02T03:00:00Z,29.4412,-92.0613,10.0,18.17,11111222 
WAVCIS,ioos:station:WAVCIS:CSI03:1,2013-09-02T04:00:00Z,29.4412,-92.0613,10.0,18.27,11111222 
WAVCIS,ioos:station:WAVCIS:CSI03:1,2013-09-02T05:00:00Z,29.4412,-92.0613,10.0,18.21,11111222 
WAVCIS,ioos:station:WAVCIS:CSI03:1,2013-09-02T06:00:00Z,29.4412,-92.0613,10.0,18.13,11111222 
WAVCIS,ioos:station:WAVCIS:CSI03:1,2013-09-02T07:00:00Z,29.4412,-92.0613,10.0,18.03,11111222 
WAVCIS,ioos:station:WAVCIS:CSI03:1,2013-09-02T08:00:00Z,29.4412,-92.0613,10.0,18.28,11111222 
WAVCIS,ioos:station:WAVCIS:CSI03:1,2013-09-02T09:00:00Z,29.4412,-92.0613,10.0,18.77,11111222 
WAVCIS,ioos:station:WAVCIS:CSI03:1,2013-09-02T10:00:00Z,29.4412,-92.0613,10.0,18.84,11111222 
WAVCIS,ioos:station:WAVCIS:CSI03:1,2013-09-02T11:00:00Z,29.4412,-92.0613,10.0,18.87,11111222 
WAVCIS,ioos:station:WAVCIS:CSI03:1,2013-09-02T12:00:00Z,29.4412,-92.0613,10.0,18.97,11111222 
WAVCIS,ioos:station:WAVCIS:CSI03:1,2013-09-02T13:00:00Z,29.4412,-92.0613,10.0,18.94,11111222 
WAVCIS,ioos:station:WAVCIS:CSI03:1,2013-09-02T14:00:00Z,29.4412,-92.0613,10.0,19.03,11111222 
WAVCIS,ioos:station:WAVCIS:CSI03:1,2013-09-02T15:00:00Z,29.4412,-92.0613,10.0,19.19,11111222 
WAVCIS,ioos:station:WAVCIS:CSI03:1,2013-09-02T16:00:00Z,29.4412,-92.0613,10.0,19.39,11111222 
WAVCIS,ioos:station:WAVCIS:CSI03:1,2013-09-02T17:00:00Z,29.4412,-92.0613,10.0,19.43,11111222 
WAVCIS,ioos:station:WAVCIS:CSI03:1,2013-09-02T18:00:00Z,29.4412,-92.0613,10.0,19.57,11111222 
WAVCIS,ioos:station:WAVCIS:CSI03:1,2013-09-02T19:00:00Z,29.4412,-92.0613,10.0,19.7,11111222 
WAVCIS,ioos:station:WAVCIS:CSI03:1,2013-09-02T20:00:00Z,29.4412,-92.0613,10.0,19.65,11111222 
WAVCIS,ioos:station:WAVCIS:CSI03:1,2013-09-02T21:00:00Z,29.4412,-92.0613,10.0,19.72,11111222 
WAVCIS,ioos:station:WAVCIS:CSI03:1,2013-09-02T22:00:00Z,29.4412,-92.0613,10.0,19.71,11111222 
WAVCIS,ioos:station:WAVCIS:CSI03:1,2013-09-02T23:00:00Z,29.4412,-92.0613,10.0,20.1,11111222 
WAVCIS,ioos:station:WAVCIS:CSI03:1,2013-09-03T00:00:00Z,29.4412,-92.0613,10.0,20.27,11111222 
WAVCIS,ioos:station:WAVCIS:CSI03:1,2013-09-03T01:00:00Z,29.4412,-92.0613,10.0,20.48,11111222 
WAVCIS,ioos:station:WAVCIS:CSI03:1,2013-09-03T02:00:00Z,29.4412,-92.0613,10.0,20.45,11111222 
WAVCIS,ioos:station:WAVCIS:CSI03:1,2013-09-03T03:00:00Z,29.4412,-92.0613,10.0,20.34,11111222 
WAVCIS,ioos:station:WAVCIS:CSI03:1,2013-09-03T04:00:00Z,29.4412,-92.0613,10.0,20.21,11111222 
WAVCIS,ioos:station:WAVCIS:CSI03:1,2013-09-03T05:00:00Z,29.4412,-92.0613,10.0,20.34,11111222 
WAVCIS,ioos:station:WAVCIS:CSI03:1,2013-09-03T06:00:00Z,29.4412,-92.0613,10.0,20.47,11111222 
WAVCIS,ioos:station:WAVCIS:CSI03:1,2013-09-03T07:00:00Z,29.4412,-92.0613,10.0,20.6,11111222 
WAVCIS,ioos:station:WAVCIS:CSI03:1,2013-09-03T08:00:00Z,29.4412,-92.0613,10.0,20.69,11111222 
WAVCIS,ioos:station:WAVCIS:CSI03:1,2013-09-03T09:00:00Z,29.4412,-92.0613,10.0,20.67,11111222 
WAVCIS,ioos:station:WAVCIS:CSI03:1,2013-09-03T10:00:00Z,29.4412,-92.0613,10.0,20.65,11111222 
WAVCIS,ioos:station:WAVCIS:CSI03:1,2013-09-03T11:00:00Z,29.4412,-92.0613,10.0,20.53,11111222 
WAVCIS,ioos:station:WAVCIS:CSI03:1,2013-09-03T12:00:00Z,29.4412,-92.0613,10.0,20.3,11111222 
WAVCIS,ioos:station:WAVCIS:CSI03:1,2013-09-03T13:00:00Z,29.4412,-92.0613,10.0,20.14,11111222 
WAVCIS,ioos:station:WAVCIS:CSI03:1,2013-09-03T14:00:00Z,29.4412,-92.0613,10.0,19.93,11111222 
WAVCIS,ioos:station:WAVCIS:CSI03:1,2013-09-03T15:00:00Z,29.4412,-92.0613,10.0,19.78,11111222 
WAVCIS,ioos:station:WAVCIS:CSI03:1,2013-09-03T16:00:00Z,29.4412,-92.0613,10.0,19.64,11111222 
WAVCIS,ioos:station:WAVCIS:CSI03:1,2013-09-03T17:00:00Z,29.4412,-92.0613,10.0,19.65,11111222 
WAVCIS,ioos:station:WAVCIS:CSI03:1,2013-09-03T18:00:00Z,29.4412,-92.0613,10.0,19.6,11111222 
WAVCIS,ioos:station:WAVCIS:CSI03:1,2013-09-03T19:00:00Z,29.4412,-92.0613,10.0,19.58,11111222 
WAVCIS,ioos:station:WAVCIS:CSI03:1,2013-09-03T20:00:00Z,29.4412,-92.0613,10.0,19.58,11111222 
WAVCIS,ioos:station:WAVCIS:CSI03:1,2013-09-03T21:00:00Z,29.4412,-92.0613,10.0,19.61,11111222 
WAVCIS,ioos:station:WAVCIS:CSI03:1,2013-09-03T22:00:00Z,29.4412,-92.0613,10.0,19.65,11111222 
WAVCIS,ioos:station:WAVCIS:CSI03:1,2013-09-03T23:00:00Z,29.4412,-92.0613,10.0,19.61,11111222 
WAVCIS,ioos:station:WAVCIS:CSI03:1,2013-09-04T00:00:00Z,29.4412,-92.0613,10.0,19.87,11111222 
WAVCIS,ioos:station:WAVCIS:CSI03:1,2013-09-04T01:00:00Z,29.4412,-92.0613,10.0,20.01,11111222 
WAVCIS,ioos:station:WAVCIS:CSI03:1,2013-09-04T02:00:00Z,29.4412,-92.0613,10.0,20.38,11111222 
WAVCIS,ioos:station:WAVCIS:CSI03:1,2013-09-04T03:00:00Z,29.4412,-92.0613,10.0,20.52,11111222 
WAVCIS,ioos:station:WAVCIS:CSI03:1,2013-09-04T04:00:00Z,29.4412,-92.0613,10.0,20.3,11111222 
WAVCIS,ioos:station:WAVCIS:CSI03:1,2013-09-04T05:00:00Z,29.4412,-92.0613,10.0,20.07,11111222 
WAVCIS,ioos:station:WAVCIS:CSI03:1,2013-09-04T06:00:00Z,29.4412,-92.0613,10.0,19.95,11111222 
WAVCIS,ioos:station:WAVCIS:CSI03:1,2013-09-04T07:00:00Z,29.4412,-92.0613,10.0,19.94,11111222 
WAVCIS,ioos:station:WAVCIS:CSI03:1,2013-09-04T08:00:00Z,29.4412,-92.0613,10.0,19.82,11111222 
WAVCIS,ioos:station:WAVCIS:CSI03:1,2013-09-04T09:00:00Z,29.4412,-92.0613,10.0,19.88,11111222 
WAVCIS,ioos:station:WAVCIS:CSI03:1,2013-09-04T10:00:00Z,29.4412,-92.0613,10.0,19.92,11111222 
WAVCIS,ioos:station:WAVCIS:CSI03:1,2013-09-04T11:00:00Z,29.4412,-92.0613,10.0,19.95,11111222 
WAVCIS,ioos:station:WAVCIS:CSI03:1,2013-09-04T12:00:00Z,29.4412,-92.0613,10.0,20.04,11111222 
WAVCIS,ioos:station:WAVCIS:CSI03:1,2013-09-04T13:00:00Z,29.4412,-92.0613,10.0,20.13,11111222 
WAVCIS,ioos:station:WAVCIS:CSI03:1,2013-09-04T14:00:00Z,29.4412,-92.0613,10.0,20.0,11111222 
WAVCIS,ioos:station:WAVCIS:CSI03:1,2013-09-04T15:00:00Z,29.4412,-92.0613,10.0,19.98,11111222 
WAVCIS,ioos:station:WAVCIS:CSI03:1,2013-09-04T16:00:00Z,29.4412,-92.0613,10.0,20.0,11111222 
WAVCIS,ioos:station:WAVCIS:CSI03:1,2013-09-04T17:00:00Z,29.4412,-92.0613,10.0,20.01,11111222 
WAVCIS,ioos:station:WAVCIS:CSI03:1,2013-09-04T18:00:00Z,29.4412,-92.0613,10.0,20.03,11111222 
WAVCIS,ioos:station:WAVCIS:CSI03:1,2013-09-04T19:00:00Z,29.4412,-92.0613,10.0,19.92,11111222 
WAVCIS,ioos:station:WAVCIS:CSI03:1,2013-09-04T20:00:00Z,29.4412,-92.0613,10.0,19.91,11111222 
WAVCIS,ioos:station:WAVCIS:CSI03:1,2013-09-04T21:00:00Z,29.4412,-92.0613,10.0,19.94,11111222 
WAVCIS,ioos:station:WAVCIS:CSI03:1,2013-09-04T22:00:00Z,29.4412,-92.0613,10.0,20.07,11111222 
WAVCIS,ioos:station:WAVCIS:CSI03:1,2013-09-04T23:00:00Z,29.4412,-92.0613,10.0,20.16,11111222 
WAVCIS,ioos:station:WAVCIS:CSI03:1,2013-09-05T00:00:00Z,29.4412,-92.0613,10.0,20.21,11111222 
WAVCIS,ioos:station:WAVCIS:CSI03:1,2013-09-05T01:00:00Z,29.4412,-92.0613,10.0,20.53,11111222 
WAVCIS,ioos:station:WAVCIS:CSI03:1,2013-09-05T02:00:00Z,29.4412,-92.0613,10.0,21.33,11111222 
WAVCIS,ioos:station:WAVCIS:CSI03:1,2013-09-05T03:00:00Z,29.4412,-92.0613,10.0,21.72,11111222 
WAVCIS,ioos:station:WAVCIS:CSI03:1,2013-09-05T04:00:00Z,29.4412,-92.0613,10.0,22.1,11111222 
WAVCIS,ioos:station:WAVCIS:CSI03:1,2013-09-05T05:00:00Z,29.4412,-92.0613,10.0,22.11,11111222 
WAVCIS,ioos:station:WAVCIS:CSI03:1,2013-09-05T06:00:00Z,29.4412,-92.0613,10.0,21.94,11111222 
WAVCIS,ioos:station:WAVCIS:CSI03:1,2013-09-05T07:00:00Z,29.4412,-92.0613,10.0,21.85,11111222 
WAVCIS,ioos:station:WAVCIS:CSI03:1,2013-09-05T08:00:00Z,29.4412,-92.0613,10.0,21.63,11111222 
WAVCIS,ioos:station:WAVCIS:CSI03:1,2013-09-05T09:00:00Z,29.4412,-92.0613,10.0,21.18,11111222 
WAVCIS,ioos:station:WAVCIS:CSI03:1,2013-09-05T10:00:00Z,29.4412,-92.0613,10.0,20.57,11111222 
WAVCIS,ioos:station:WAVCIS:CSI03:1,2013-09-05T11:00:00Z,29.4412,-92.0613,10.0,20.49,11111222 
WAVCIS,ioos:station:WAVCIS:CSI03:1,2013-09-05T12:00:00Z,29.4412,-92.0613,10.0,20.96,11111222 
WAVCIS,ioos:station:WAVCIS:CSI03:1,2013-09-05T13:00:00Z,29.4412,-92.0613,10.0,21.08,11111222 
WAVCIS,ioos:station:WAVCIS:CSI03:1,2013-09-05T14:00:00Z,29.4412,-92.0613,10.0,21.12,11111222 
WAVCIS,ioos:station:WAVCIS:CSI03:1,2013-09-05T15:00:00Z,29.4412,-92.0613,10.0,21.07,11111222 
WAVCIS,ioos:station:WAVCIS:CSI03:1,2013-09-05T16:00:00Z,29.4412,-92.0613,10.0,21.37,11111222 
WAVCIS,ioos:station:WAVCIS:CSI03:1,2013-09-05T17:00:00Z,29.4412,-92.0613,10.0,21.65,11111222 
WAVCIS,ioos:station:WAVCIS:CSI03:1,2013-09-05T18:00:00Z,29.4412,-92.0613,10.0,22.07,11111222 
WAVCIS,ioos:station:WAVCIS:CSI03:1,2013-09-05T19:00:00Z,29.4412,-92.0613,10.0,22.75,11111222 
WAVCIS,ioos:station:WAVCIS:CSI03:1,2013-09-05T20:00:00Z,29.4412,-92.0613,10.0,23.31,11111222 
WAVCIS,ioos:station:WAVCIS:CSI03:1,2013-09-05T21:00:00Z,29.4412,-92.0613,10.0,23.53,11111222 
WAVCIS,ioos:station:WAVCIS:CSI03:1,2013-09-05T22:00:00Z,29.4412,-92.0613,10.0,23.64,11111222 
WAVCIS,ioos:station:WAVCIS:CSI03:1,2013-09-05T23:00:00Z,29.4412,-92.0613,10.0,23.73,11111222 
WAVCIS,ioos:station:WAVCIS:CSI03:1,2013-09-06T00:00:00Z,29.4412,-92.0613,10.0,23.61,11111222 
WAVCIS,ioos:station:WAVCIS:CSI03:1,2013-09-06T01:00:00Z,29.4412,-92.0613,10.0,23.19,11111222 
WAVCIS,ioos:station:WAVCIS:CSI03:1,2013-09-06T02:00:00Z,29.4412,-92.0613,10.0,22.64,11111222 
WAVCIS,ioos:station:WAVCIS:CSI03:1,2013-09-06T03:00:00Z,29.4412,-92.0613,10.0,22.48,11111222 
WAVCIS,ioos:station:WAVCIS:CSI03:1,2013-09-06T04:00:00Z,29.4412,-92.0613,10.0,22.61,11111222 
WAVCIS,ioos:station:WAVCIS:CSI03:1,2013-09-06T05:00:00Z,29.4412,-92.0613,10.0,22.65,11111222 
WAVCIS,ioos:station:WAVCIS:CSI03:1,2013-09-06T06:00:00Z,29.4412,-92.0613,10.0,22.91,11111222 
WAVCIS,ioos:station:WAVCIS:CSI03:1,2013-09-06T07:00:00Z,29.4412,-92.0613,10.0,23.03,11111222 
WAVCIS,ioos:station:WAVCIS:CSI03:1,2013-09-06T08:00:00Z,29.4412,-92.0613,10.0,22.91,11111222 
WAVCIS,ioos:station:WAVCIS:CSI03:1,2013-09-06T09:00:00Z,29.4412,-92.0613,10.0,22.8,11111222 
WAVCIS,ioos:station:WAVCIS:CSI03:1,2013-09-06T10:00:00Z,29.4412,-92.0613,10.0,22.58,11111222 
WAVCIS,ioos:station:WAVCIS:CSI03:1,2013-09-06T11:00:00Z,29.4412,-92.0613,10.0,22.32,11111222 
WAVCIS,ioos:station:WAVCIS:CSI03:1,2013-09-06T12:00:00Z,29.4412,-92.0613,10.0,21.81,11111222 
WAVCIS,ioos:station:WAVCIS:CSI03:1,2013-09-06T13:00:00Z,29.4412,-92.0613,10.0,21.86,11111222 
WAVCIS,ioos:station:WAVCIS:CSI03:1,2013-09-06T14:00:00Z,29.4412,-92.0613,10.0,22.21,11111222 
WAVCIS,ioos:station:WAVCIS:CSI03:1,2013-09-06T15:00:00Z,29.4412,-92.0613,10.0,22.5,11111222 
WAVCIS,ioos:station:WAVCIS:CSI03:1,2013-09-06T16:00:00Z,29.4412,-92.0613,10.0,23.09,11111222 
WAVCIS,ioos:station:WAVCIS:CSI03:1,2013-09-06T17:00:00Z,29.4412,-92.0613,10.0,23.53,11111222 
WAVCIS,ioos:station:WAVCIS:CSI03:1,2013-09-06T18:00:00Z,29.4412,-92.0613,10.0,23.76,11111222 
WAVCIS,ioos:station:WAVCIS:CSI03:1,2013-09-06T19:00:00Z,29.4412,-92.0613,10.0,23.27,11111222 
WAVCIS,ioos:station:WAVCIS:CSI03:1,2013-09-06T20:00:00Z,29.4412,-92.0613,10.0,22.29,11111222 
WAVCIS,ioos:station:WAVCIS:CSI03:1,2013-09-06T21:00:00Z,29.4412,-92.0613,10.0,21.83,11111222 
WAVCIS,ioos:station:WAVCIS:CSI03:1,2013-09-06T22:00:00Z,29.4412,-92.0613,10.0,21.99,11111222 
WAVCIS,ioos:station:WAVCIS:CSI03:1,2013-09-06T23:00:00Z,29.4412,-92.0613,10.0,22.49,11111222 
WAVCIS,ioos:station:WAVCIS:CSI03:1,2013-09-07T00:00:00Z,29.4412,-92.0613,10.0,22.98,11111222 
WAVCIS,ioos:station:WAVCIS:CSI03:1,2013-09-07T01:00:00Z,29.4412,-92.0613,10.0,23.32,11111222 
WAVCIS,ioos:station:WAVCIS:CSI03:1,2013-09-07T02:00:00Z,29.4412,-92.0613,10.0,23.5,11111222 
WAVCIS,ioos:station:WAVCIS:CSI03:1,2013-09-07T03:00:00Z,29.4412,-92.0613,10.0,23.34,11111222 
WAVCIS,ioos:station:WAVCIS:CSI03:1,2013-09-07T04:00:00Z,29.4412,-92.0613,10.0,22.8,11111222 
WAVCIS,ioos:station:WAVCIS:CSI03:1,2013-09-07T05:00:00Z,29.4412,-92.0613,10.0,22.16,11111222 
WAVCIS,ioos:station:WAVCIS:CSI03:1,2013-09-07T06:00:00Z,29.4412,-92.0613,10.0,22.24,11111222 
WAVCIS,ioos:station:WAVCIS:CSI03:1,2013-09-07T07:00:00Z,29.4412,-92.0613,10.0,21.79,11111222 
WAVCIS,ioos:station:WAVCIS:CSI03:1,2013-09-07T08:00:00Z,29.4412,-92.0613,10.0,21.4,11111222 
WAVCIS,ioos:station:WAVCIS:CSI03:1,2013-09-07T09:00:00Z,29.4412,-92.0613,10.0,21.16,11111222 
WAVCIS,ioos:station:WAVCIS:CSI03:1,2013-09-07T10:00:00Z,29.4412,-92.0613,10.0,21.04,11111222 
WAVCIS,ioos:station:WAVCIS:CSI03:1,2013-09-07T11:00:00Z,29.4412,-92.0613,10.0,21.57,11111222 
WAVCIS,ioos:station:WAVCIS:CSI03:1,2013-09-07T12:00:00Z,29.4412,-92.0613,10.0,21.34,11111222 
WAVCIS,ioos:station:WAVCIS:CSI03:1,2013-09-07T13:00:00Z,29.4412,-92.0613,10.0,20.49,11111222 
WAVCIS,ioos:station:WAVCIS:CSI03:1,2013-09-07T14:00:00Z,29.4412,-92.0613,10.0,20.25,11111222 
WAVCIS,ioos:station:WAVCIS:CSI03:1,2013-09-07T15:00:00Z,29.4412,-92.0613,10.0,20.46,11111222 
WAVCIS,ioos:station:WAVCIS:CSI03:1,2013-09-07T16:00:00Z,29.4412,-92.0613,10.0,20.77,11111222 
WAVCIS,ioos:station:WAVCIS:CSI03:1,2013-09-07T17:00:00Z,29.4412,-92.0613,10.0,21.03,11111222 
WAVCIS,ioos:station:WAVCIS:CSI03:1,2013-09-07T18:00:00Z,29.4412,-92.0613,10.0,21.24,11111222 
WAVCIS,ioos:station:WAVCIS:CSI03:1,2013-09-07T19:00:00Z,29.4412,-92.0613,10.0,21.7,11111222 
WAVCIS,ioos:station:WAVCIS:CSI03:1,2013-09-07T20:00:00Z,29.4412,-92.0613,10.0,22.28,11111222 
WAVCIS,ioos:station:WAVCIS:CSI03:1,2013-09-07T21:00:00Z,29.4412,-92.0613,10.0,22.84,11111222 
WAVCIS,ioos:station:WAVCIS:CSI03:1,2013-09-07T22:00:00Z,29.4412,-92.0613,10.0,22.86,11111222 
WAVCIS,ioos:station:WAVCIS:CSI03:1,2013-09-07T23:00:00Z,29.4412,-92.0613,10.0,16.33,11111222 
WAVCIS,ioos:station:WAVCIS:CSI03:1,2013-09-08T00:00:00Z,29.4412,-92.0613,10.0,18.27,11111222 
WAVCIS,ioos:station:WAVCIS:CSI03:1,2013-09-08T01:00:00Z,29.4412,-92.0613,10.0,19.92,11111222 
WAVCIS,ioos:station:WAVCIS:CSI03:1,2013-09-08T02:00:00Z,29.4412,-92.0613,10.0,20.1,11111222 
WAVCIS,ioos:station:WAVCIS:CSI03:1,2013-09-08T03:00:00Z,29.4412,-92.0613,10.0,20.43,11111222 
WAVCIS,ioos:station:WAVCIS:CSI03:1,2013-09-08T04:00:00Z,29.4412,-92.0613,10.0,21.43,11111222 
WAVCIS,ioos:station:WAVCIS:CSI03:1,2013-09-08T05:00:00Z,29.4412,-92.0613,10.0,22.16,11111222 
WAVCIS,ioos:station:WAVCIS:CSI03:1,2013-09-08T06:00:00Z,29.4412,-92.0613,10.0,22.5,11111222 
WAVCIS,ioos:station:WAVCIS:CSI03:1,2013-09-08T07:00:00Z,29.4412,-92.0613,10.0,22.34,11111222 
WAVCIS,ioos:station:WAVCIS:CSI03:1,2013-09-08T08:00:00Z,29.4412,-92.0613,10.0,21.87,11111222 
WAVCIS,ioos:station:WAVCIS:CSI03:1,2013-09-08T09:00:00Z,29.4412,-92.0613,10.0,21.68,11111222 
WAVCIS,ioos:station:WAVCIS:CSI03:1,2013-09-08T10:00:00Z,29.4412,-92.0613,10.0,21.29,11111222 
WAVCIS,ioos:station:WAVCIS:CSI03:1,2013-09-08T11:00:00Z,29.4412,-92.0613,10.0,21.27,11111222 
WAVCIS,ioos:station:WAVCIS:CSI03:1,2013-09-08T12:00:00Z,29.4412,-92.0613,10.0,21.77,11111222 
WAVCIS,ioos:station:WAVCIS:CSI03:1,2013-09-08T13:00:00Z,29.4412,-92.0613,10.0,22.24,11111222 
WAVCIS,ioos:station:WAVCIS:CSI03:1,2013-09-08T14:00:00Z,29.4412,-92.0613,10.0,22.55,11111222 
WAVCIS,ioos:station:WAVCIS:CSI03:1,2013-09-08T15:00:00Z,29.4412,-92.0613,10.0,22.72,11111222 
WAVCIS,ioos:station:WAVCIS:CSI03:1,2013-09-08T18:00:00Z,29.4412,-92.0613,10.0,22.51,11111222 
WAVCIS,ioos:station:WAVCIS:CSI03:1,2013-09-08T19:00:00Z,29.4412,-92.0613,10.0,21.92,11111222 
WAVCIS,ioos:station:WAVCIS:CSI03:1,2013-09-08T20:00:00Z,29.4412,-92.0613,10.0,23.2,11111222 
WAVCIS,ioos:station:WAVCIS:CSI03:1,2013-09-08T21:00:00Z,29.4412,-92.0613,10.0,23.74,11111222 
WAVCIS,ioos:station:WAVCIS:CSI03:1,2013-09-08T22:00:00Z,29.4412,-92.0613,10.0,23.85,11111222 
WAVCIS,ioos:station:WAVCIS:CSI03:1,2013-09-08T23:00:00Z,29.4412,-92.0613,10.0,23.75,11111222 
WAVCIS,ioos:station:WAVCIS:CSI03:1,2013-09-09T00:00:00Z,29.4412,-92.0613,10.0,23.75,11111222 
WAVCIS,ioos:station:WAVCIS:CSI03:1,2013-09-09T01:00:00Z,29.4412,-92.0613,10.0,23.74,11111222 
WAVCIS,ioos:station:WAVCIS:CSI03:1,2013-09-09T02:00:00Z,29.4412,-92.0613,10.0,23.57,11111222 
WAVCIS,ioos:station:WAVCIS:CSI03:1,2013-09-09T03:00:00Z,29.4412,-92.0613,10.0,23.29,11111222 
WAVCIS,ioos:station:WAVCIS:CSI03:1,2013-09-09T04:00:00Z,29.4412,-92.0613,10.0,22.8,11111222 
WAVCIS,ioos:station:WAVCIS:CSI03:1,2013-09-09T05:00:00Z,29.4412,-92.0613,10.0,21.91,11111222 
WAVCIS,ioos:station:WAVCIS:CSI03:1,2013-09-09T06:00:00Z,29.4412,-92.0613,10.0,21.26,11111222 
WAVCIS,ioos:station:WAVCIS:CSI03:1,2013-09-09T07:00:00Z,29.4412,-92.0613,10.0,21.07,11111222 
WAVCIS,ioos:station:WAVCIS:CSI03:1,2013-09-09T08:00:00Z,29.4412,-92.0613,10.0,20.98,11111222 
WAVCIS,ioos:station:WAVCIS:CSI03:1,2013-09-09T09:00:00Z,29.4412,-92.0613,10.0,21.19,11111222 
WAVCIS,ioos:station:WAVCIS:CSI03:1,2013-09-09T10:00:00Z,29.4412,-92.0613,10.0,20.97,11111222 
WAVCIS,ioos:station:WAVCIS:CSI03:1,2013-09-09T11:00:00Z,29.4412,-92.0613,10.0,20.92,11111222 
WAVCIS,ioos:station:WAVCIS:CSI03:1,2013-09-09T12:00:00Z,29.4412,-92.0613,10.0,21.53,11111222 
WAVCIS,ioos:station:WAVCIS:CSI03:1,2013-09-09T13:00:00Z,29.4412,-92.0613,10.0,21.97,11111222 
WAVCIS,ioos:station:WAVCIS:CSI03:1,2013-09-09T14:00:00Z,29.4412,-92.0613,10.0,22.43,11111222 
WAVCIS,ioos:station:WAVCIS:CSI03:1,2013-09-09T15:00:00Z,29.4412,-92.0613,10.0,23.0,11111222 
WAVCIS,ioos:station:WAVCIS:CSI03:1,2013-09-09T16:00:00Z,29.4412,-92.0613,10.0,23.39,11111222 
WAVCIS,ioos:station:WAVCIS:CSI03:1,2013-09-09T17:00:00Z,29.4412,-92.0613,10.0,23.83,11111222 
WAVCIS,ioos:station:WAVCIS:CSI03:1,2013-09-09T18:00:00Z,29.4412,-92.0613,10.0,24.31,11111222 
WAVCIS,ioos:station:WAVCIS:CSI03:1,2013-09-09T19:00:00Z,29.4412,-92.0613,10.0,24.36,11111222 
WAVCIS,ioos:station:WAVCIS:CSI03:1,2013-09-09T20:00:00Z,29.4412,-92.0613,10.0,24.21,11111222 
WAVCIS,ioos:station:WAVCIS:CSI03:1,2013-09-09T21:00:00Z,29.4412,-92.0613,10.0,24.13,11111222 
WAVCIS,ioos:station:WAVCIS:CSI03:1,2013-09-09T22:00:00Z,29.4412,-92.0613,10.0,23.88,11111222 
WAVCIS,ioos:station:WAVCIS:CSI03:1,2013-09-09T23:00:00Z,29.4412,-92.0613,10.0,23.61,11111222 
WAVCIS,ioos:station:WAVCIS:CSI03:1,2013-09-10T00:00:00Z,29.4412,-92.0613,10.0,23.32,11111222 
WAVCIS,ioos:station:WAVCIS:CSI03:1,2013-09-10T01:00:00Z,29.4412,-92.0613,10.0,23.0,11111222 
WAVCIS,ioos:station:WAVCIS:CSI03:1,2013-09-10T02:00:00Z,29.4412,-92.0613,10.0,22.7,11111222 
WAVCIS,ioos:station:WAVCIS:CSI03:1,2013-09-10T03:00:00Z,29.4412,-92.0613,10.0,22.38,11111222 
WAVCIS,ioos:station:WAVCIS:CSI03:1,2013-09-10T04:00:00Z,29.4412,-92.0613,10.0,20.84,11111222 
WAVCIS,ioos:station:WAVCIS:CSI03:1,2013-09-10T05:00:00Z,29.4412,-92.0613,10.0,21.55,11111222 
WAVCIS,ioos:station:WAVCIS:CSI03:1,2013-09-10T06:00:00Z,29.4412,-92.0613,10.0,21.6,11111222 
WAVCIS,ioos:station:WAVCIS:CSI03:1,2013-09-10T07:00:00Z,29.4412,-92.0613,10.0,21.36,11111222 
WAVCIS,ioos:station:WAVCIS:CSI03:1,2013-09-10T08:00:00Z,29.4412,-92.0613,10.0,21.68,11111222 
WAVCIS,ioos:station:WAVCIS:CSI03:1,2013-09-10T09:00:00Z,29.4412,-92.0613,10.0,21.77,11111222 
WAVCIS,ioos:station:WAVCIS:CSI03:1,2013-09-10T10:00:00Z,29.4412,-92.0613,10.0,21.65,11111222 
WAVCIS,ioos:station:WAVCIS:CSI03:1,2013-09-10T11:00:00Z,29.4412,-92.0613,10.0,21.42,11111222 
WAVCIS,ioos:station:WAVCIS:CSI03:1,2013-09-10T12:00:00Z,29.4412,-92.0613,10.0,21.35,11111222 
WAVCIS,ioos:station:WAVCIS:CSI03:1,2013-09-10T13:00:00Z,29.4412,-92.0613,10.0,21.63,11111222 
WAVCIS,ioos:station:WAVCIS:CSI03:1,2013-09-10T14:00:00Z,29.4412,-92.0613,10.0,22.29,11111222 
WAVCIS,ioos:station:WAVCIS:CSI03:1,2013-09-10T15:00:00Z,29.4412,-92.0613,10.0,22.68,11111222 
WAVCIS,ioos:station:WAVCIS:CSI03:1,2013-09-10T16:00:00Z,29.4412,-92.0613,10.0,23.31,11111222 
WAVCIS,ioos:station:WAVCIS:CSI03:1,2013-09-10T17:00:00Z,29.4412,-92.0613,10.0,23.76,11111222 
WAVCIS,ioos:station:WAVCIS:CSI03:1,2013-09-10T18:00:00Z,29.4412,-92.0613,10.0,23.88,11111222 
WAVCIS,ioos:station:WAVCIS:CSI03:1,2013-09-10T19:00:00Z,29.4412,-92.0613,10.0,23.76,11111222 
WAVCIS,ioos:station:WAVCIS:CSI03:1,2013-09-10T20:00:00Z,29.4412,-92.0613,10.0,23.46,11111222 
WAVCIS,ioos:station:WAVCIS:CSI03:1,2013-09-10T21:00:00Z,29.4412,-92.0613,10.0,23.12,11111222 
WAVCIS,ioos:station:WAVCIS:CSI03:1,2013-09-10T22:00:00Z,29.4412,-92.0613,10.0,22.59,11111222 
WAVCIS,ioos:station:WAVCIS:CSI03:1,2013-09-10T23:00:00Z,29.4412,-92.0613,10.0,22.14,11111222 
WAVCIS,ioos:station:WAVCIS:CSI03:1,2013-09-11T00:00:00Z,29.4412,-92.0613,10.0,21.78,11111222 
WAVCIS,ioos:station:WAVCIS:CSI03:1,2013-09-11T01:00:00Z,29.4412,-92.0613,10.0,21.35,11111222 
WAVCIS,ioos:station:WAVCIS:CSI03:1,2013-09-11T02:00:00Z,29.4412,-92.0613,10.0,14.16,11111222 
WAVCIS,ioos:station:WAVCIS:CSI03:1,2013-09-11T03:00:00Z,29.4412,-92.0613,10.0,15.39,11111222 
WAVCIS,ioos:station:WAVCIS:CSI03:1,2013-09-11T04:00:00Z,29.4412,-92.0613,10.0,16.41,11111222 
WAVCIS,ioos:station:WAVCIS:CSI03:1,2013-09-11T05:00:00Z,29.4412,-92.0613,10.0,17.06,11111222 
WAVCIS,ioos:station:WAVCIS:CSI03:1,2013-09-11T06:00:00Z,29.4412,-92.0613,10.0,9.78,11133222 
WAVCIS,ioos:station:WAVCIS:CSI03:1,2013-09-11T07:00:00Z,29.4412,-92.0613,10.0,10.76,11111222 
WAVCIS,ioos:station:WAVCIS:CSI03:1,2013-09-11T08:00:00Z,29.4412,-92.0613,10.0,11.4,11111222 
WAVCIS,ioos:station:WAVCIS:CSI03:1,2013-09-11T09:00:00Z,29.4412,-92.0613,10.0,11.96,11111222 
WAVCIS,ioos:station:WAVCIS:CSI03:1,2013-09-11T10:00:00Z,29.4412,-92.0613,10.0,12.45,11111222 
WAVCIS,ioos:station:WAVCIS:CSI03:1,2013-09-11T11:00:00Z,29.4412,-92.0613,10.0,13.05,11111222 
WAVCIS,ioos:station:WAVCIS:CSI03:1,2013-09-11T12:00:00Z,29.4412,-92.0613,10.0,13.34,11111222 
WAVCIS,ioos:station:WAVCIS:CSI03:1,2013-09-11T13:00:00Z,29.4412,-92.0613,10.0,13.73,11111222 
WAVCIS,ioos:station:WAVCIS:CSI03:1,2013-09-11T14:00:00Z,29.4412,-92.0613,10.0,13.97,11111222 
WAVCIS,ioos:station:WAVCIS:CSI03:1,2013-09-11T15:00:00Z,29.4412,-92.0613,10.0,14.25,11111222 